Weather History for KEQY - January, 2012

Change the Weather History Date:

Wednesday, January 18, 2012

  Actual Average (KCLT) Record (KCLT)
Temperature  
Mean Temperature 46 °F 40 °F  
Max Temperature 55 °F 51 °F 71 °F (1937)
Min Temperature 37 °F 29 °F 10 °F (2003)
Degree Days  
Heating Degree Days 19 25  
Month to date heating degree days 450  
Since 1 July heating degree days 1787  
Cooling Degree Days 0 0  
Month to date cooling degree days 0  
Year to date cooling degree days 0  
Moisture  
Dew Point 41 °F    
Average Humidity 76    
Maximum Humidity 100    
Minimum Humidity 38    
Precipitation  
Precipitation 0.29 in 0.11 in 2.51 in (1943)
Month to date precipitation 2.02  
Year to date precipitation 2.02  
Snow  
Snow 0.00 in 0.10 in 3.50 in (1893)
Month to date snowfall 1.2  
Since 1 July snowfall 1.6  
Snow Depth -    
Sea Level Pressure  
Sea Level Pressure 29.99 in    
Wind  
Wind Speed 9 mph (NNW)    
Max Wind Speed 18 mph    
Max Gust Speed 23 mph    
Visibility 8 miles    
Events Rain    
T = Trace of Precipitation, MM = Missing Value Source: NWS Daily Summary

Daily Weather History Graph

Daily Weather History Graph

Search for Another Location

Airport or City:

Trip Planner

Search our weather history database for the weather conditions in past years. The results will help you decide how hot, cold, wet, or windy it might be!

Date:

Astronomy

Jan. 18, 2012 Rise Set
Actual Time 7:29 AM EST 5:36 PM EST
Civil Twilight 7:01 AM EST 6:03 PM EST
Nautical Twilight 6:30 AM EST 6:34 PM EST
Astronomical Twilight 6:00 AM EST 7:05 PM EST
Moon 2:56 AM EST (1/18) 1:15 PM EST (1/18)
Length of Visible Light 11h 02m
Length of Day
10h 07m
Waning Crescent, 25% of the Moon is Illuminated
Jan 18
Waning Crescent
Jan 23
New
Jan 30
First Quarter
Feb 7
Full
Feb 14
Last Quarter

Hourly Weather History & Observations

Time (EST) Temp. Windchill Dew Point Humidity Pressure Visibility Wind Dir Wind Speed Gust Speed Precip Events Conditions
12:07 AM 55.4 °F - 53.6 °F 94% 29.93 in 10.0 mi SW 11.5 mph 20.7 mph 0.00 in Rain Light Rain
12:16 AM 55.4 °F - 53.6 °F 94% 29.93 in 9.0 mi SW 13.8 mph - 0.00 in Rain Light Rain
12:28 AM 55.4 °F - 53.6 °F 94% 29.87 in 9.0 mi South 12.7 mph 19.6 mph 0.01 in Rain Light Rain
12:35 AM 55.4 °F - 53.6 °F 94% 29.89 in 8.0 mi SSW 10.4 mph 19.6 mph 0.01 in Rain Light Rain
12:41 AM 55.4 °F - 53.6 °F 94% 29.92 in 10.0 mi WSW 11.5 mph 18.4 mph 0.01 in Rain Light Rain
12:53 AM 55.0 °F - 54.0 °F 96% 29.94 in 10.0 mi WSW 6.9 mph - 0.01 in Rain Light Rain
1:36 AM 55.4 °F - 53.6 °F 94% 29.89 in 10.0 mi Variable 6.9 mph - 0.00 in   Overcast
1:53 AM 55.9 °F - 55.0 °F 97% 29.92 in 10.0 mi SSW 9.2 mph - 0.00 in   Overcast
2:15 AM 55.4 °F - 55.4 °F 100% 29.89 in 5.0 mi WSW 11.5 mph - 0.01 in Rain Light Rain
2:53 AM 55.9 °F - 55.9 °F 100% 29.91 in 7.0 mi WSW 11.5 mph - 0.03 in Rain Light Rain
3:31 AM 55.4 °F - 55.4 °F 100% 29.88 in 2.5 mi NW 5.8 mph - 0.05 in Rain Heavy Rain
3:40 AM 55.4 °F - 55.4 °F 100% 29.88 in 1.8 mi NNW 5.8 mph - 0.11 in Rain Heavy Rain
3:53 AM 55.0 °F - 55.0 °F 100% 29.90 in 4.0 mi Variable 3.5 mph - 0.13 in Rain Light Rain
4:04 AM 55.4 °F - 55.4 °F 100% 29.88 in 4.0 mi NW 3.5 mph - 0.01 in Rain Light Rain
4:18 AM 53.6 °F - 53.6 °F 100% 29.89 in 2.5 mi NNW 17.3 mph 23.0 mph 0.04 in Rain Rain
4:26 AM 53.6 °F - 48.2 °F 82% 29.90 in 3.0 mi NW 18.4 mph 23.0 mph 0.04 in Rain Light Rain
4:53 AM 51.1 °F - 48.0 °F 89% 29.94 in 8.0 mi WNW 6.9 mph - 0.11 in Rain Light Rain
5:53 AM 50.0 °F - 48.9 °F 96% 29.95 in 10.0 mi Calm Calm - 0.01 in   Overcast
6:53 AM 48.9 °F - 43.0 °F 80% 29.99 in 10.0 mi North 10.4 mph - N/A   Clear
7:53 AM 44.1 °F 39.5 °F 37.0 °F 76% 30.04 in 10.0 mi North 8.1 mph - N/A   Clear
8:53 AM 46.0 °F 41.9 °F 36.0 °F 68% 30.06 in 10.0 mi North 8.1 mph - N/A   Clear
9:53 AM 46.0 °F 41.0 °F 34.0 °F 63% 30.09 in 10.0 mi North 10.4 mph - N/A   Clear
10:53 AM 46.9 °F - 33.1 °F 59% 30.10 in 10.0 mi North 10.4 mph - N/A   Clear
11:53 AM 46.9 °F - 28.9 °F 50% 30.09 in 10.0 mi North 13.8 mph 18.4 mph N/A   Clear
12:53 PM 48.0 °F - 28.0 °F 46% 30.06 in 10.0 mi North 9.2 mph - N/A   Clear
1:53 PM 48.9 °F - 27.0 °F 43% 30.05 in 10.0 mi NNE 8.1 mph - N/A   Clear
2:53 PM 48.9 °F - 25.0 °F 39% 30.04 in 10.0 mi NE 4.6 mph - N/A   Clear
3:53 PM 48.9 °F - 24.1 °F 38% 30.04 in 10.0 mi Calm Calm - N/A   Clear
4:53 PM 46.9 °F - 24.1 °F 41% 30.07 in 10.0 mi NE 3.5 mph - N/A   Clear
5:53 PM 42.1 °F 39.2 °F 26.1 °F 53% 30.10 in 10.0 mi NNE 4.6 mph - N/A   Clear
6:53 PM 41.0 °F 36.4 °F 24.1 °F 51% 30.10 in 10.0 mi NNE 6.9 mph - N/A   Clear
7:53 PM 39.9 °F 36.7 °F 24.1 °F 53% 30.11 in 10.0 mi NE 4.6 mph - N/A   Clear
8:53 PM 39.0 °F 34.0 °F 25.0 °F 57% 30.11 in 10.0 mi NE 6.9 mph - N/A   Clear
9:53 PM 37.9 °F 32.1 °F 26.1 °F 62% 30.13 in 10.0 mi NE 8.1 mph - N/A   Clear
11:53 PM 37.0 °F 30.4 °F 24.1 °F 59% 30.14 in 10.0 mi NE 9.2 mph - N/A   Clear